CZ-3C DEB, 40817

Orbit data source: Space-Track

CZ-3C DEB, 40817 is space debris in HEO originally from a launch on Sun, 31 Oct 2010 UTC launched from the Xichang Space Center, China (XSC). Debris objects in space refer to the collection of defunct objects orbiting the Earth. Examples of debris include non-operational satellites, rocket bodies, and fragments generated from explosions, collisions, or faulty payload assembly.

Loading next visibility...
Identifier
40817, 2010-057AJ
Orbit
HEO
Country
Flag of CNCN / PRC
Related business
Manufacturer
CALT
Mission
Spacecraft
Bus & Motor
Unknown
Mass
Unknown
Launch date (UTC)
2010-10-31 (15 years ago)
Launch vehicle
Unknown
Launch site
Xichang Space Center, China (XSC)
Object type
Payload
Rocket body
Debris
Shape & HBR
Unknown shape, 0.1 m
Radar Cross Section
Medium (>0.1 m² and <1 m²)

Expand to show TLE details & history
Last TLE update: 4 months ago

TLE from 4 months ago
0 CZ-3C DEB
1 40817U 10057AJ  25207.28397444 -.00000045  00000-0  20527-2 0  9998
2 40817  19.5031 269.3260 7178673 235.5768  35.3021  2.20023572 42120
Epoch: 2025-07-26T06:48Z
TLE epoch observation values (Epoch: 2025-07-26T06:48:55.391Z)
Latitude
0.00001°
Longitude
-137.03167°
Altitude
14,024.736 km
Speed
4.807 km/s
True Right ascension
17h 57m 41s
True Declination
0° 00' 00"
Sunlit
Object was in daylight at epoch
Visualization orbit readout
Latitude
Unknown
Longitude
Unknown
Altitude
Unknown
Speed
Unknown
Apparent Right ascension
Unknown
Apparent Declination
Unknown
Sunlit
N/A
Visualization observer readout
Local Sidereal Time
06:43:04
Azimuth
Unknown
Elevation
Unknown
Doppler factor
Unknown
Orbital elements
Apogee altitude
36,524.893 km
Perigee altitude
668.011 km
Semi-major axis
24,974.589 km
Eccentricity
0.71787
Inclination
19.5031°
RAAN
269.326°
Arg. of periapsis
235.5768°
True anomaly
124.35201°
Mean anomaly
35.3021°
Eccentric anomaly
75.03852°
Mean motion
0.54992 °/min
Orbital period
654.65 mins
BSTAR
0.0020527
Loading maneuver chart data...
Computing Atmospheric mass density...
Loading historical data...
Loading historical data...
Loading historical data...
Loading historical data...
Loading historical data...
Loading historical data...
Loading historical data...

Documentation

Showing up to 5 results
|